TimePST,TemperatureF,Dew PointF,Humidity,Sea Level PressureIn,VisibilityMPH,Wind Direction,Wind SpeedMPH,Gust SpeedMPH,PrecipitationIn,Events,Conditions,WindDirDegrees,DateUTC
12:15 AM,46.4,44.6,93,29.73,8.0,Calm,Calm,-,0.01,,Overcast,0,2012-11-17 08:15:00
12:35 AM,46.4,44.6,93,29.71,10.0,SE,5.8,-,0.01,,Overcast,130,2012-11-17 08:35:00
12:55 AM,48.2,44.6,87,29.69,10.0,ESE,10.4,17.3,0.01,,Overcast,110,2012-11-17 08:55:00
1:15 AM,48.2,44.6,87,29.69,10.0,Calm,Calm,-,N/A,,Overcast,0,2012-11-17 09:15:00
1:35 AM,46.4,44.6,93,29.67,10.0,North,5.8,-,N/A,,Overcast,360,2012-11-17 09:35:00
1:55 AM,46.4,44.6,93,29.67,10.0,Calm,Calm,-,N/A,,Overcast,0,2012-11-17 09:55:00
2:15 AM,46.4,44.6,93,29.66,10.0,Calm,Calm,-,0.01,,Overcast,0,2012-11-17 10:15:00
2:35 AM,46.4,44.6,93,29.65,10.0,NNW,5.8,-,0.01,,Overcast,340,2012-11-17 10:35:00
2:55 AM,46.4,44.6,93,29.65,10.0,NNE,4.6,-,0.01,,Overcast,20,2012-11-17 10:55:00
3:15 AM,46.4,44.6,93,29.63,10.0,Calm,Calm,-,N/A,,Overcast,0,2012-11-17 11:15:00
3:35 AM,46.4,44.6,93,29.62,10.0,WNW,6.9,-,N/A,,Overcast,300,2012-11-17 11:35:00
3:55 AM,46.4,44.6,93,29.61,10.0,Calm,Calm,-,N/A,,Overcast,0,2012-11-17 11:55:00
4:15 AM,46.4,44.6,93,29.62,10.0,Calm,Calm,-,N/A,,Overcast,0,2012-11-17 12:15:00
4:35 AM,46.4,44.6,93,29.60,10.0,Calm,Calm,-,N/A,,Overcast,0,2012-11-17 12:35:00
4:55 AM,44.6,42.8,93,29.58,10.0,Calm,Calm,-,N/A,,Overcast,0,2012-11-17 12:55:00
5:15 AM,44.6,44.6,100,29.58,10.0,Calm,Calm,-,N/A,,Overcast,0,2012-11-17 13:15:00
5:35 AM,44.6,44.6,100,29.58,9.0,Calm,Calm,-,N/A,,Overcast,0,2012-11-17 13:35:00
5:55 AM,44.6,44.6,100,29.56,10.0,Calm,Calm,-,N/A,,Overcast,0,2012-11-17 13:55:00
6:15 AM,44.6,44.6,100,29.56,10.0,Calm,Calm,-,N/A,,Overcast,0,2012-11-17 14:15:00
6:35 AM,46.4,44.6,93,29.56,10.0,Calm,Calm,-,N/A,,Overcast,0,2012-11-17 14:35:00
6:55 AM,46.4,42.8,87,29.55,10.0,Calm,Calm,-,N/A,,Overcast,0,2012-11-17 14:55:00
7:15 AM,46.4,42.8,87,29.56,10.0,Calm,Calm,-,N/A,,Overcast,0,2012-11-17 15:15:00
7:35 AM,46.4,44.6,93,29.54,10.0,Calm,Calm,-,N/A,,Overcast,0,2012-11-17 15:35:00
7:55 AM,46.4,44.6,93,29.54,10.0,Calm,Calm,-,N/A,,Overcast,0,2012-11-17 15:55:00
8:15 AM,46.4,44.6,93,29.53,10.0,Calm,Calm,-,N/A,,Overcast,0,2012-11-17 16:15:00
8:35 AM,46.4,44.6,93,29.53,10.0,Calm,Calm,-,N/A,,Overcast,0,2012-11-17 16:35:00
8:55 AM,46.4,44.6,93,29.52,10.0,Calm,Calm,-,N/A,,Overcast,0,2012-11-17 16:55:00
9:15 AM,46.4,44.6,93,29.50,10.0,Calm,Calm,-,N/A,,Overcast,0,2012-11-17 17:15:00
9:35 AM,48.2,44.6,87,29.49,10.0,Calm,Calm,-,N/A,,Overcast,0,2012-11-17 17:35:00
9:55 AM,50.0,44.6,82,29.49,10.0,Calm,Calm,-,N/A,,Overcast,0,2012-11-17 17:55:00
10:15 AM,51.8,44.6,76,29.49,10.0,Calm,Calm,-,N/A,,Overcast,0,2012-11-17 18:15:00
10:35 AM,51.8,44.6,76,29.49,10.0,South,3.5,-,N/A,,Overcast,190,2012-11-17 18:35:00
10:55 AM,53.6,44.6,72,29.48,10.0,SSE,6.9,-,N/A,,Overcast,160,2012-11-17 18:55:00
11:15 AM,53.6,42.8,67,29.48,10.0,SSE,10.4,-,N/A,,Overcast,160,2012-11-17 19:15:00
11:35 AM,53.6,44.6,72,29.47,10.0,SE,12.7,19.6,N/A,,Overcast,140,2012-11-17 19:35:00
11:55 AM,55.4,42.8,63,29.46,10.0,SSW,5.8,-,N/A,,Overcast,210,2012-11-17 19:55:00
12:15 PM,53.6,42.8,67,29.46,10.0,SSW,9.2,-,N/A,,Overcast,200,2012-11-17 20:15:00
12:35 PM,55.4,41.0,58,29.48,10.0,SSW,10.4,-,N/A,,Overcast,210,2012-11-17 20:35:00
12:55 PM,51.8,42.8,71,29.49,10.0,SW,10.4,19.6,N/A,,Overcast,220,2012-11-17 20:55:00
1:15 PM,51.8,44.6,76,29.50,10.0,SSW,13.8,-,N/A,,Overcast,210,2012-11-17 21:15:00
1:35 PM,50.0,44.6,82,29.51,10.0,South,16.1,19.6,N/A,,Overcast,180,2012-11-17 21:35:00
1:55 PM,48.2,44.6,87,29.52,10.0,South,13.8,-,N/A,,Overcast,170,2012-11-17 21:55:00
2:15 PM,48.2,42.8,82,29.54,10.0,South,16.1,-,N/A,,Overcast,170,2012-11-17 22:15:00
2:35 PM,46.4,42.8,87,29.56,9.0,South,16.1,21.9,N/A,,Overcast,180,2012-11-17 22:35:00
2:55 PM,46.4,42.8,87,29.57,9.0,South,16.1,23.0,N/A,,Overcast,170,2012-11-17 22:55:00
3:15 PM,46.4,41.0,81,29.57,10.0,SSE,13.8,-,N/A,,Overcast,160,2012-11-17 23:15:00
3:35 PM,44.6,41.0,87,29.59,10.0,South,13.8,17.3,N/A,,Overcast,170,2012-11-17 23:35:00
3:55 PM,44.6,41.0,87,29.60,10.0,SSE,9.2,-,N/A,,Overcast,160,2012-11-17 23:55:00
4:15 PM,44.6,41.0,87,29.60,10.0,SSE,11.5,-,N/A,,Overcast,160,2012-11-18 00:15:00
4:35 PM,44.6,41.0,87,29.60,10.0,SSE,13.8,-,N/A,,Overcast,160,2012-11-18 00:35:00
4:55 PM,44.6,39.2,81,29.61,10.0,SSE,16.1,24.2,N/A,,Overcast,160,2012-11-18 00:55:00
5:15 PM,44.6,39.2,81,29.62,10.0,SSE,13.8,19.6,N/A,,Overcast,160,2012-11-18 01:15:00
5:35 PM,44.6,39.2,81,29.63,10.0,SSE,18.4,21.9,N/A,,Overcast,160,2012-11-18 01:35:00
5:55 PM,44.6,39.2,81,29.64,10.0,SSE,18.4,26.5,N/A,,Overcast,150,2012-11-18 01:55:00
6:15 PM,44.6,39.2,81,29.65,10.0,SE,15.0,21.9,N/A,,Overcast,140,2012-11-18 02:15:00
6:35 PM,44.6,39.2,81,29.65,10.0,SE,16.1,21.9,N/A,,Overcast,130,2012-11-18 02:35:00
6:55 PM,44.6,39.2,81,29.65,10.0,ESE,15.0,20.7,N/A,,Overcast,120,2012-11-18 02:55:00
7:15 PM,44.6,39.2,81,29.65,10.0,SE,17.3,-,N/A,,Overcast,130,2012-11-18 03:15:00
7:35 PM,42.8,37.4,81,29.64,10.0,SE,17.3,-,N/A,,Mostly Cloudy,130,2012-11-18 03:35:00
7:55 PM,42.8,37.4,81,29.65,10.0,SE,11.5,-,N/A,,Clear,130,2012-11-18 03:55:00
8:15 PM,42.8,37.4,81,29.66,10.0,SSE,10.4,-,N/A,,Clear,150,2012-11-18 04:15:00
8:35 PM,42.8,37.4,81,29.67,10.0,SE,9.2,-,N/A,,Scattered Clouds,130,2012-11-18 04:35:00
8:55 PM,44.6,37.4,76,29.66,10.0,SE,13.8,-,N/A,,Overcast,140,2012-11-18 04:55:00
9:15 PM,44.6,37.4,76,29.67,10.0,SSE,10.4,17.3,N/A,,Mostly Cloudy,150,2012-11-18 05:15:00
9:35 PM,44.6,37.4,76,29.67,10.0,SSE,20.7,25.3,N/A,,Overcast,160,2012-11-18 05:35:00
9:55 PM,44.6,37.4,76,29.68,10.0,SSE,15.0,-,N/A,,Overcast,160,2012-11-18 05:55:00
10:15 PM,44.6,37.4,76,29.68,10.0,SSE,11.5,-,N/A,,Overcast,150,2012-11-18 06:15:00
10:35 PM,44.6,37.4,76,29.69,10.0,SSE,15.0,19.6,N/A,,Overcast,160,2012-11-18 06:35:00
10:55 PM,44.6,39.2,81,29.69,10.0,SE,17.3,23.0,N/A,,Overcast,140,2012-11-18 06:55:00
11:15 PM,44.6,37.4,76,29.70,10.0,SSE,18.4,21.9,N/A,,Overcast,150,2012-11-18 07:15:00
11:55 PM,44.6,37.4,76,29.71,10.0,SSE,20.7,26.5,N/A,,Overcast,150,2012-11-18 07:55:00